Time,TemperatureF,DewpointF,PressureIn,WindDirection,WindDirectionDegrees,WindSpeedMPH,WindSpeedGustMPH,Humidity,HourlyPrecipIn,Conditions,Clouds,dailyrainin,SoftwareType,DateUTC
2013-02-15 00:02:00,32.0,23.0,-100.00,West,275,7.0,12.0,68,-99.99,,,-99.99,,2013-02-15 05:02:00,
2013-02-15 00:12:00,32.0,23.0,-100.00,West,270,7.0,12.0,69,-99.99,,,-99.99,,2013-02-15 05:12:00,
2013-02-15 00:22:00,32.0,22.0,-100.00,West,275,13.0,20.0,67,-99.99,,,-99.99,,2013-02-15 05:22:00,
2013-02-15 00:32:00,32.0,22.0,-100.00,West,275,8.0,14.0,67,-99.99,,,-99.99,,2013-02-15 05:32:00,
2013-02-15 00:42:00,32.0,22.0,-100.00,WNW,290,12.0,16.0,66,-99.99,,,-99.99,,2013-02-15 05:42:00,
2013-02-15 00:52:00,32.0,22.0,-100.00,West,270,12.0,16.0,66,-99.99,,,-99.99,,2013-02-15 05:52:00,
2013-02-15 01:02:00,32.0,22.0,-100.00,West,280,12.0,22.0,66,-99.99,,,-99.99,,2013-02-15 06:02:00,
2013-02-15 01:11:00,31.0,22.0,-100.00,West,275,9.0,16.0,67,-99.99,,,-99.99,,2013-02-15 06:11:00,
2013-02-15 01:22:00,31.0,22.0,-100.00,West,270,9.0,16.0,67,-99.99,,,-99.99,,2013-02-15 06:22:00,
2013-02-15 01:32:00,31.0,22.0,-100.00,West,275,9.0,15.0,67,-99.99,,,-99.99,,2013-02-15 06:32:00,
2013-02-15 01:42:00,31.0,22.0,-100.00,West,265,11.0,16.0,67,-99.99,,,-99.99,,2013-02-15 06:42:00,
2013-02-15 01:52:00,31.0,22.0,-100.00,West,270,9.0,16.0,68,-99.99,,,-99.99,,2013-02-15 06:52:00,
2013-02-15 02:01:00,31.0,22.0,-100.00,West,275,9.0,17.0,68,-99.99,,,-99.99,,2013-02-15 07:01:00,
2013-02-15 02:11:00,31.0,22.0,-100.00,West,280,9.0,14.0,68,-99.99,,,-99.99,,2013-02-15 07:11:00,
2013-02-15 02:21:00,31.0,22.0,-100.00,West,275,9.0,14.0,68,-99.99,,,-99.99,,2013-02-15 07:21:00,
2013-02-15 02:32:00,31.0,22.0,-100.00,West,265,10.0,17.0,68,-99.99,,,-99.99,,2013-02-15 07:32:00,
2013-02-15 02:42:00,31.0,22.0,-100.00,West,280,9.0,15.0,68,-99.99,,,-99.99,,2013-02-15 07:42:00,
2013-02-15 02:52:00,31.0,22.0,-100.00,West,265,9.0,16.0,68,-99.99,,,-99.99,,2013-02-15 07:52:00,
2013-02-15 03:01:00,31.0,22.0,-100.00,WNW,290,9.0,13.0,69,-99.99,,,-99.99,,2013-02-15 08:01:00,
2013-02-15 03:11:00,31.0,22.0,-100.00,West,280,9.0,14.0,69,-99.99,,,-99.99,,2013-02-15 08:11:00,
2013-02-15 03:21:00,31.0,22.0,-100.00,West,275,9.0,12.0,70,-99.99,,,-99.99,,2013-02-15 08:21:00,
2013-02-15 03:32:00,30.0,22.0,-100.00,West,275,7.0,14.0,71,-99.99,,,-99.99,,2013-02-15 08:32:00,
2013-02-15 03:42:00,30.0,22.0,-100.00,West,275,7.0,12.0,71,-99.99,,,-99.99,,2013-02-15 08:42:00,
2013-02-15 03:52:00,30.0,22.0,-100.00,West,270,9.0,12.0,71,-99.99,,,-99.99,,2013-02-15 08:52:00,
2013-02-15 04:02:00,30.0,22.0,-100.00,West,270,6.0,10.0,72,-99.99,,,-99.99,,2013-02-15 09:02:00,
2013-02-15 04:12:00,29.0,22.0,-100.00,West,265,6.0,11.0,73,-99.99,,,-99.99,,2013-02-15 09:12:00,
2013-02-15 04:21:00,29.0,22.0,-100.00,West,265,6.0,9.0,73,-99.99,,,-99.99,,2013-02-15 09:21:00,
2013-02-15 04:32:00,29.0,22.0,-100.00,West,265,4.0,7.0,74,-99.99,,,-99.99,,2013-02-15 09:32:00,
2013-02-15 04:42:00,28.0,22.0,-100.00,West,260,6.0,7.0,74,-99.99,,,-99.99,,2013-02-15 09:42:00,
2013-02-15 04:52:00,28.0,22.0,-100.00,West,270,4.0,9.0,75,-99.99,,,-99.99,,2013-02-15 09:52:00,
2013-02-15 05:01:00,29.0,22.0,-100.00,West,265,5.0,7.0,75,-99.99,,,-99.99,,2013-02-15 10:01:00,
2013-02-15 05:11:00,29.0,22.0,-100.00,West,275,6.0,10.0,74,-99.99,,,-99.99,,2013-02-15 10:11:00,
2013-02-15 05:21:00,29.0,22.0,-100.00,West,275,7.0,9.0,73,-99.99,,,-99.99,,2013-02-15 10:21:00,
2013-02-15 05:32:00,29.0,22.0,-100.00,West,270,7.0,10.0,73,-99.99,,,-99.99,,2013-02-15 10:32:00,
2013-02-15 05:42:00,30.0,22.0,-100.00,West,280,5.0,9.0,73,-99.99,,,-99.99,,2013-02-15 10:42:00,
2013-02-15 05:51:00,30.0,23.0,-100.00,NW,315,9.0,14.0,73,-99.99,,,-99.99,,2013-02-15 10:51:00,
2013-02-15 06:01:00,30.0,23.0,-100.00,NW,320,7.0,14.0,73,-99.99,,,-99.99,,2013-02-15 11:01:00,
2013-02-15 06:11:00,30.0,22.0,-100.00,NNW,335,6.0,10.0,74,-99.99,,,-99.99,,2013-02-15 11:11:00,
2013-02-15 06:23:00,29.0,22.0,-100.00,NNW,335,4.0,11.0,74,-99.99,,,-99.99,,2013-02-15 11:23:00,
2013-02-15 06:32:00,29.0,22.0,-100.00,NW,325,3.0,9.0,74,-99.99,,,-99.99,,2013-02-15 11:32:00,
2013-02-15 06:42:00,29.0,22.0,-100.00,NW,325,5.0,11.0,74,-99.99,,,-99.99,,2013-02-15 11:42:00,
2013-02-15 06:52:00,29.0,22.0,-100.00,NNW,345,4.0,11.0,74,-99.99,,,-99.99,,2013-02-15 11:52:00,
2013-02-15 07:02:00,29.0,22.0,-100.00,NNW,345,4.0,11.0,74,-99.99,,,-99.99,,2013-02-15 12:02:00,
2013-02-15 07:11:00,28.0,22.0,-100.00,NNW,345,4.0,9.0,76,-99.99,,,-99.99,,2013-02-15 12:11:00,
2013-02-15 07:21:00,28.0,22.0,-100.00,NW,325,2.0,6.0,77,-99.99,,,-99.99,,2013-02-15 12:21:00,
2013-02-15 07:32:00,28.0,22.0,-100.00,North,0,2.0,6.0,78,-99.99,,,-99.99,,2013-02-15 12:32:00,
2013-02-15 07:42:00,28.0,22.0,-100.00,North,5,2.0,7.0,79,-99.99,,,-99.99,,2013-02-15 12:42:00,
2013-02-15 07:52:00,27.0,22.0,-100.00,North,0,4.0,7.0,79,-99.99,,,-99.99,,2013-02-15 12:52:00,
2013-02-15 08:02:00,27.0,22.0,-100.00,North,5,3.0,6.0,79,-99.99,,,-99.99,,2013-02-15 13:02:00,
2013-02-15 08:11:00,27.0,21.0,-100.00,NNW,330,2.0,7.0,78,-99.99,,,-99.99,,2013-02-15 13:11:00,
2013-02-15 08:22:00,27.0,21.0,-100.00,NNW,330,2.0,6.0,77,-99.99,,,-99.99,,2013-02-15 13:22:00,
2013-02-15 08:32:00,27.0,20.0,-100.00,North,355,2.0,6.0,75,-99.99,,,-99.99,,2013-02-15 13:32:00,
2013-02-15 08:42:00,27.0,20.0,-100.00,NNW,340,4.0,6.0,74,-99.99,,,-99.99,,2013-02-15 13:42:00,
2013-02-15 08:52:00,27.0,20.0,-100.00,North,355,4.0,7.0,73,-99.99,,,-99.99,,2013-02-15 13:52:00,
2013-02-15 09:01:00,27.0,20.0,-100.00,NNW,340,4.0,11.0,71,-99.99,,,-99.99,,2013-02-15 14:01:00,
2013-02-15 09:12:00,28.0,20.0,-100.00,NNW,345,4.0,9.0,71,-99.99,,,-99.99,,2013-02-15 14:12:00,
2013-02-15 09:21:00,28.0,20.0,-100.00,North,355,3.0,7.0,72,-99.99,,,-99.99,,2013-02-15 14:21:00,
2013-02-15 09:32:00,28.0,20.0,-100.00,NW,320,3.0,9.0,71,-99.99,,,-99.99,,2013-02-15 14:32:00,
2013-02-15 09:42:00,28.0,20.0,-100.00,NW,325,2.0,8.0,72,-99.99,,,-99.99,,2013-02-15 14:42:00,
2013-02-15 09:52:00,28.0,20.0,-100.00,NNW,330,4.0,7.0,71,-99.99,,,-99.99,,2013-02-15 14:52:00,
2013-02-15 10:02:00,28.0,20.0,-100.00,NW,325,4.0,8.0,72,-99.99,,,-99.99,,2013-02-15 15:02:00,
2013-02-15 10:11:00,28.0,20.0,-100.00,NNW,335,4.0,7.0,72,-99.99,,,-99.99,,2013-02-15 15:11:00,
2013-02-15 10:21:00,28.0,20.0,-100.00,NW,320,6.0,10.0,71,-99.99,,,-99.99,,2013-02-15 15:21:00,
2013-02-15 10:32:00,28.0,20.0,-100.00,NNW,335,6.0,11.0,70,-99.99,,,-99.99,,2013-02-15 15:32:00,
2013-02-15 10:42:00,28.0,20.0,-100.00,North,0,6.0,10.0,70,-99.99,,,-99.99,,2013-02-15 15:42:00,
2013-02-15 10:52:00,28.0,20.0,-100.00,NW,315,6.0,12.0,70,-99.99,,,-99.99,,2013-02-15 15:52:00,
2013-02-15 11:02:00,29.0,20.0,-100.00,North,0,6.0,10.0,71,-99.99,,,-99.99,,2013-02-15 16:02:00,
2013-02-15 11:11:00,29.0,20.0,-100.00,NNW,335,6.0,10.0,70,-99.99,,,-99.99,,2013-02-15 16:11:00,
2013-02-15 11:22:00,28.0,19.0,-100.00,NNW,335,7.0,11.0,68,-99.99,,,-99.99,,2013-02-15 16:22:00,
2013-02-15 11:32:00,29.0,20.0,-100.00,North,0,4.0,11.0,66,-99.99,,,-99.99,,2013-02-15 16:32:00,
2013-02-15 11:42:00,29.0,19.0,-100.00,NNW,335,6.0,12.0,66,-99.99,,,-99.99,,2013-02-15 16:42:00,
2013-02-15 11:52:00,28.0,18.0,-100.00,NW,320,6.0,13.0,65,-99.99,,,-99.99,,2013-02-15 16:52:00,
2013-02-15 12:01:00,29.0,18.0,-100.00,NW,315,9.0,11.0,62,-99.99,,,-99.99,,2013-02-15 17:01:00,
2013-02-15 12:11:00,30.0,18.0,-100.00,NW,315,8.0,13.0,58,-99.99,,,-99.99,,2013-02-15 17:11:00,
2013-02-15 12:21:00,32.0,18.0,-100.00,NNW,335,7.0,17.0,55,-99.99,,,-99.99,,2013-02-15 17:21:00,
2013-02-15 12:32:00,32.0,17.0,-100.00,WNW,290,10.0,14.0,52,-99.99,,,-99.99,,2013-02-15 17:32:00,
2013-02-15 12:42:00,33.0,16.0,-100.00,North,350,7.0,16.0,51,-99.99,,,-99.99,,2013-02-15 17:42:00,
2013-02-15 12:52:00,31.0,15.0,-100.00,NW,325,6.0,12.0,51,-99.99,,,-99.99,,2013-02-15 17:52:00,
2013-02-15 13:01:00,31.0,15.0,-100.00,NW,310,11.0,20.0,50,-99.99,,,-99.99,,2013-02-15 18:01:00,
2013-02-15 13:11:00,30.0,15.0,-100.00,NW,305,10.0,17.0,51,-99.99,,,-99.99,,2013-02-15 18:11:00,
2013-02-15 13:21:00,29.0,14.0,-100.00,NW,305,12.0,16.0,52,-99.99,,,-99.99,,2013-02-15 18:21:00,
2013-02-15 13:32:00,32.0,16.0,-100.00,NW,315,6.0,17.0,51,-99.99,,,-99.99,,2013-02-15 18:32:00,
2013-02-15 13:42:00,33.0,16.0,-100.00,NW,315,6.0,16.0,50,-99.99,,,-99.99,,2013-02-15 18:42:00,
2013-02-15 13:52:00,30.0,15.0,-100.00,NW,325,8.0,16.0,51,-99.99,,,-99.99,,2013-02-15 18:52:00,
2013-02-15 14:02:00,31.0,16.0,-100.00,WNW,295,12.0,18.0,51,-99.99,,,-99.99,,2013-02-15 19:02:00,
2013-02-15 14:11:00,32.0,16.0,-100.00,NW,305,15.0,19.0,50,-99.99,,,-99.99,,2013-02-15 19:11:00,
2013-02-15 14:22:00,31.0,15.0,-100.00,NW,325,9.0,17.0,52,-99.99,,,-99.99,,2013-02-15 19:22:00,
2013-02-15 14:32:00,31.0,16.0,-100.00,NNW,330,8.0,19.0,53,-99.99,,,-99.99,,2013-02-15 19:32:00,
2013-02-15 14:42:00,31.0,16.0,-100.00,NW,325,12.0,19.0,52,-99.99,,,-99.99,,2013-02-15 19:42:00,
2013-02-15 14:52:00,31.0,15.0,-100.00,WNW,300,16.0,22.0,50,-99.99,,,-99.99,,2013-02-15 19:52:00,
2013-02-15 15:01:00,30.0,15.0,-100.00,WNW,285,16.0,22.0,52,-99.99,,,-99.99,,2013-02-15 20:01:00,
2013-02-15 15:11:00,31.0,15.0,-100.00,NW,305,17.0,22.0,52,-99.99,,,-99.99,,2013-02-15 20:11:00,
2013-02-15 15:21:00,30.0,16.0,-100.00,NW,325,7.0,21.0,55,-99.99,,,-99.99,,2013-02-15 20:21:00,
2013-02-15 15:32:00,30.0,16.0,-100.00,West,265,11.0,18.0,55,-99.99,,,-99.99,,2013-02-15 20:32:00,
2013-02-15 15:42:00,29.0,16.0,-100.00,NW,305,16.0,21.0,58,-99.99,,,-99.99,,2013-02-15 20:42:00,
2013-02-15 15:52:00,29.0,16.0,-100.00,NW,315,9.0,21.0,56,-99.99,,,-99.99,,2013-02-15 20:52:00,
2013-02-15 16:02:00,30.0,16.0,-100.00,West,280,9.0,15.0,55,-99.99,,,-99.99,,2013-02-15 21:02:00,
2013-02-15 16:11:00,31.0,15.0,-100.00,NW,305,15.0,21.0,50,-99.99,,,-99.99,,2013-02-15 21:11:00,
2013-02-15 16:21:00,29.0,14.0,-100.00,WNW,290,11.0,19.0,51,-99.99,,,-99.99,,2013-02-15 21:21:00,
2013-02-15 16:32:00,29.0,13.0,-100.00,WNW,290,12.0,17.0,51,-99.99,,,-99.99,,2013-02-15 21:32:00,
2013-02-15 16:42:00,30.0,13.0,-100.00,WNW,285,12.0,16.0,48,-99.99,,,-99.99,,2013-02-15 21:42:00,
2013-02-15 16:52:00,31.0,13.0,-100.00,WNW,300,11.0,15.0,47,-99.99,,,-99.99,,2013-02-15 21:52:00,
2013-02-15 17:02:00,31.0,12.0,-100.00,NW,305,15.0,20.0,46,-99.99,,,-99.99,,2013-02-15 22:02:00,
2013-02-15 17:11:00,29.0,12.0,-100.00,WNW,300,15.0,19.0,47,-99.99,,,-99.99,,2013-02-15 22:11:00,
2013-02-15 17:22:00,29.0,12.0,-100.00,WNW,295,11.0,16.0,48,-99.99,,,-99.99,,2013-02-15 22:22:00,
2013-02-15 17:32:00,29.0,12.0,-100.00,WNW,300,11.0,17.0,49,-99.99,,,-99.99,,2013-02-15 22:32:00,
2013-02-15 17:42:00,28.0,12.0,-100.00,NW,305,12.0,15.0,49,-99.99,,,-99.99,,2013-02-15 22:42:00,
2013-02-15 17:51:00,28.0,12.0,-100.00,NW,310,11.0,20.0,49,-99.99,,,-99.99,,2013-02-15 22:51:00,
2013-02-15 18:02:00,28.0,12.0,-100.00,NW,305,12.0,19.0,51,-99.99,,,-99.99,,2013-02-15 23:02:00,
2013-02-15 18:11:00,27.0,12.0,-100.00,NW,305,11.0,16.0,51,-99.99,,,-99.99,,2013-02-15 23:11:00,
2013-02-15 18:21:00,27.0,12.0,-100.00,WNW,300,9.0,16.0,52,-99.99,,,-99.99,,2013-02-15 23:21:00,
2013-02-15 18:32:00,26.0,12.0,-100.00,WNW,300,9.0,15.0,53,-99.99,,,-99.99,,2013-02-15 23:32:00,
2013-02-15 18:42:00,26.0,12.0,-100.00,WNW,295,9.0,17.0,54,-99.99,,,-99.99,,2013-02-15 23:42:00,
2013-02-15 18:52:00,26.0,11.0,-100.00,NW,305,8.0,16.0,54,-99.99,,,-99.99,,2013-02-15 23:52:00,
2013-02-15 19:02:00,25.0,11.0,-100.00,NW,305,10.0,12.0,55,-99.99,,,-99.99,,2013-02-16 00:02:00,
2013-02-15 19:11:00,25.0,11.0,-100.00,WNW,295,9.0,13.0,55,-99.99,,,-99.99,,2013-02-16 00:11:00,
2013-02-15 19:21:00,25.0,12.0,-100.00,WNW,285,9.0,13.0,56,-99.99,,,-99.99,,2013-02-16 00:21:00,
2013-02-15 19:32:00,25.0,12.0,-100.00,NW,320,9.0,15.0,56,-99.99,,,-99.99,,2013-02-16 00:32:00,
2013-02-15 19:41:00,25.0,11.0,-100.00,NW,305,11.0,16.0,56,-99.99,,,-99.99,,2013-02-16 00:41:00,
2013-02-15 19:51:00,24.0,11.0,-100.00,WNW,300,10.0,16.0,56,-99.99,,,-99.99,,2013-02-16 00:51:00,
2013-02-15 20:02:00,24.0,11.0,-100.00,WNW,300,9.0,14.0,57,-99.99,,,-99.99,,2013-02-16 01:02:00,
2013-02-15 20:11:00,24.0,11.0,-100.00,NW,305,9.0,15.0,57,-99.99,,,-99.99,,2013-02-16 01:11:00,
2013-02-15 20:21:00,24.0,11.0,-100.00,NW,320,7.0,13.0,57,-99.99,,,-99.99,,2013-02-16 01:21:00,
2013-02-15 20:32:00,24.0,11.0,-100.00,NW,315,10.0,13.0,57,-99.99,,,-99.99,,2013-02-16 01:32:00,
2013-02-15 20:42:00,23.0,11.0,-100.00,WNW,290,8.0,14.0,59,-99.99,,,-99.99,,2013-02-16 01:42:00,
2013-02-15 20:52:00,23.0,11.0,-100.00,WNW,290,8.0,11.0,60,-99.99,,,-99.99,,2013-02-16 01:52:00,
2013-02-15 21:01:00,24.0,12.0,-100.00,WNW,295,10.0,12.0,60,-99.99,,,-99.99,,2013-02-16 02:01:00,
2013-02-15 21:11:00,24.0,12.0,-100.00,WNW,295,6.0,16.0,59,-99.99,,,-99.99,,2013-02-16 02:11:00,
2013-02-15 21:21:00,23.0,12.0,-100.00,WNW,300,6.0,10.0,61,-99.99,,,-99.99,,2013-02-16 02:21:00,
2013-02-15 21:32:00,22.0,11.0,-100.00,WNW,295,7.0,9.0,61,-99.99,,,-99.99,,2013-02-16 02:32:00,
2013-02-15 21:42:00,22.0,11.0,-100.00,WNW,300,6.0,10.0,62,-99.99,,,-99.99,,2013-02-16 02:42:00,
2013-02-15 21:52:00,22.0,11.0,-100.00,NW,305,7.0,11.0,63,-99.99,,,-99.99,,2013-02-16 02:52:00,
2013-02-15 22:02:00,22.0,11.0,-100.00,NW,310,6.0,9.0,64,-99.99,,,-99.99,,2013-02-16 03:02:00,
2013-02-15 22:11:00,21.0,12.0,-100.00,NW,305,6.0,9.0,65,-99.99,,,-99.99,,2013-02-16 03:11:00,
2013-02-15 22:21:00,21.0,11.0,-100.00,NW,305,6.0,7.0,66,-99.99,,,-99.99,,2013-02-16 03:21:00,
2013-02-15 22:32:00,20.0,11.0,-100.00,NW,305,4.0,6.0,67,-99.99,,,-99.99,,2013-02-16 03:32:00,
2013-02-15 22:42:00,20.0,12.0,-100.00,WNW,300,4.0,5.0,68,-99.99,,,-99.99,,2013-02-16 03:42:00,
2013-02-15 22:52:00,20.0,12.0,-100.00,WNW,295,3.0,5.0,70,-99.99,,,-99.99,,2013-02-16 03:52:00,
2013-02-15 23:01:00,20.0,12.0,-100.00,WNW,290,1.0,3.0,71,-99.99,,,-99.99,,2013-02-16 04:01:00,
2013-02-15 23:11:00,19.0,12.0,-100.00,West,280,1.0,2.0,72,-99.99,,,-99.99,,2013-02-16 04:11:00,
2013-02-15 23:21:00,19.0,12.0,-100.00,West,270,0.0,1.0,74,-99.99,,,-99.99,,2013-02-16 04:21:00,
2013-02-15 23:32:00,19.0,13.0,-100.00,SW,230,2.0,2.0,75,-99.99,,,-99.99,,2013-02-16 04:32:00,
2013-02-15 23:42:00,19.0,14.0,-100.00,West,275,1.0,2.0,77,-99.99,,,-99.99,,2013-02-16 04:42:00,
2013-02-15 23:51:00,19.0,14.0,-100.00,West,260,0.0,1.0,78,-99.99,,,-99.99,,2013-02-16 04:51:00,